Weather in Tvorishino

Russia / Bryansk Oblast     52°56′09″N   32°02′22″E
temp.,
°C
wind,
m/s
gust,
m/s
humid.,
%
clouds,
%
prec.,
mm/h
press.,
hPa
HPBL,
m
17 may, mon
mon1700:00+13e228475 0.0 101019
03:00+12e3489100 0.0 101052
06:00+13ene41089100 0.0 1008191
09:00+17e61385100 1.1 1006528
12:00+22ese7106787 0.1 10031081
15:00+24se796261 0.1 10031445
18:00+23se597029 0.0 1002744
21:00+17ese369161 0.8 100297
18 may, tue
tue1800:00+16ese511965 0.7 1001257
03:00+16se51297100 0.7 1002354
06:00+15sse51096100 0.0 1002412
09:00+16sse5888100 0.0 1003569
12:00+19sse5781100 1.3 1003877
15:00+19sse6878100 5.4 1002798
18:00+18se61082100 1.3 1001803
21:00+15ese51094100 2.4 1001292
19 may, wed
wed1900:00+13se41095100 1.6 1001226
03:00+12ese49975 1.6 1002221
06:00+12se499824 0.0 1002259
09:00+16sse688363 0.0 1003812
12:00+19sse5667100 0.1 10041380
15:00+19sse4574100 0.3 1004801
18:00+19s2372100 1.4 1004586
21:00+14ssw3493100 3.2 1005103
20 may, thu
thu2000:00+13wnw1298100 0.5 100499
03:00+13se3599100 1.8 1003247
06:00+12sse3796100 2.0 1003280
09:00+14sse4686100 2.2 1002689
12:00+14sse568377 0.3 1002779
15:00+14s6780100 0.4 1001989
18:00+10sse4591100 0.1 1001627
21:00+10w3593100 0.1 1001593
21 may, fri
fri2100:00+9w71096100 1.1 1002655
03:00+8wsw81296100 2.5 1003584
06:00+8w81294100 4.6 1004769
09:00+8wsw61195100 5.6 1007982
12:00+8w81192100 0.5 10101186
15:00+9w31090100 1.2 1012598
18:00+14w6971100 0.0 10131067
21:00+9sw468683 0.0 101588